Location: Oslo
(59.9170°N, 10.7500°E)
Time: 08:56:13
(UTC+02:00)

ISS - Pass Details

Date: 26 March 2019
Orbit: 408 x 410 km, 51.6° (Epoch: 22 April)

Event Time Altitude Azimuth Distance (km) Brightness Sun altitude
Rises 19:24:20 0° 213° (SSW) 2,333 0.3 -5.6°
Reaches altitude 10° 19:27:21 10° 183° (S) 1,474 -1.1 -6.0°
Maximum altitude 19:28:50 13° 156° (SSE) 1,330 -1.6 -6.2°
Drops below altitude 10° 19:30:19 10° 129° (SE) 1,476 -1.6 -6.4°
Enters shadow 19:31:01 - 120° (ESE) 1,626 -1.4 -6.4°
